QPF
0.00 0.00 0.00 0.00 0.00 0.00 0.00 0.00 0.00 0.00 0.00 0.00 0.00 0.00 0.00 0.00 0.00 0.00 0.00 0.00 0.00 0.00 0.00 0.00 0.00 0.00 0.00 0.00 0.00 0.00 0.00 0.00 0.00 0.00 0.00 0.00 0.00 0.00 0.00 0.01 0.01 0.03 0.04 0.04 0.04 0.04 0.04 0.02 0.01
0.00 0.00 0.00 0.00 0.00 0.00 0.00 0.00 0.00 0.00 0.00 0.00 0.00 0.00 0.00 0.00 0.00 0.00 0.00 0.00 0.00 0.00 0.00 0.00 0.00 0.00 0.00 0.00 0.00 0.00 0.00 0.00 0.00 0.00 0.00 0.00 0.00 0.01 0.01 0.02 0.03 0.05 0.07 0.07 0.05 0.03 0.02 0.01 0.00
0.00 0.00 0.00 0.00 0.00 0.00 0.00 0.00 0.00 0.00 0.00 0.00 0.00 0.00 0.00 0.00 0.00 0.00 0.00 0.00 0.00 0.00 0.00 0.00 0.00 0.00 0.00 0.00 0.00 0.00 0.00 0.00 0.00 0.00 0.00 0.00 0.01 0.01 0.02 0.03 0.05 0.06 0.07 0.07 0.05 0.03 0.01 0.00 0.00
0.00 0.00 0.00 0.00 0.00 0.00 0.00 0.00 0.00 0.00 0.00 0.00 0.00 0.00 0.00 0.00 0.00 0.00 0.00 0.00 0.00 0.00 0.00 0.00 0.00 0.01 0.00 0.00 0.00 0.00 0.00 0.00 0.00 0.00 0.01 0.01 0.02 0.02 0.03 0.04 0.06 0.06 0.06 0.07 0.07 0.06 0.04 0.01 0.00
0.00 0.00 0.00 0.00 0.00 0.00 0.00 0.00 0.00 0.00 0.00 0.00 0.00 0.00 0.00 0.00 0.00 0.00 0.00 0.00 0.00 0.00 0.00 0.00 0.00 0.00 0.00 0.00 0.00 0.00 0.01 0.01 0.01 0.02 0.02 0.03 0.03 0.03 0.03 0.04 0.05 0.06 0.06 0.07 0.08 0.07 0.04 0.02 0.02
0.00 0.00 0.00 0.00 0.00 0.00 0.00 0.00 0.00 0.00 0.00 0.00 0.00 0.00 0.00 0.00 0.00 0.00 0.00 0.00 0.00 0.00 0.00 0.00 0.00 0.01 0.01 0.00 0.01 0.01 0.02 0.03 0.03 0.04 0.04 0.03 0.02 0.02 0.02 0.03 0.04 0.04 0.04 0.05 0.05 0.04 0.03 0.04 0.05
0.00 0.00 0.00 0.00 0.00 0.00 0.00 0.00 0.00 0.00 0.00 0.00 0.00 0.00 0.00 0.00 0.00 0.00 0.00 0.00 0.00 0.00 0.00 0.00 0.00 0.00 0.01 0.01 0.01 0.02 0.02 0.02 0.03 0.03 0.03 0.02 0.02 0.02 0.02 0.02 0.02 0.02 0.02 0.02 0.02 0.02 0.02 0.02 0.03
0.00 0.00 0.00 0.00 0.00 0.00 0.00 0.00 0.00 0.00 0.00 0.00 0.00 0.00 0.00 0.00 0.00 0.00 0.00 0.00 0.00 0.00 0.00 0.00 0.00 0.00 0.00 0.01 0.01 0.01 0.01 0.01 0.01 0.01 0.02 0.02 0.02 0.02 0.02 0.01 0.01 0.01 0.01 0.01 0.01 0.01 0.00 0.00 0.00
0.00 0.00 0.00 0.00 0.00 0.00 0.00 0.00 0.00 0.00 0.00 0.00 0.00 0.00 0.00 0.00 0.00 0.00 0.00 0.00 0.00 0.00 0.00 0.00 0.00 0.00 0.00 0.00 0.00 0.00 0.00 0.00 0.00 0.01 0.01 0.02 0.02 0.02 0.02 0.01 0.01 0.01 0.01 0.00 0.00 0.00 0.00 0.00 0.00
0.00 0.00 0.00 0.00 0.00 0.00 0.00 0.00 0.00 0.00 0.00 0.00 0.00 0.00 0.00 0.00 0.00 0.00 0.00 0.00 0.00 0.00 0.00 0.00 0.00 0.00 0.00 0.00 0.00 0.00 0.00 0.00 0.00 0.01 0.01 0.02 0.02 0.02 0.01 0.00 0.01 0.00 0.00 0.00 0.00 0.00 0.00 0.00 0.00
0.00 0.00 0.00 0.00 0.00 0.00 0.00 0.00 0.00 0.00 0.00 0.00 0.00 0.00 0.00 0.00 0.00 0.00 0.00 0.00 0.00 0.00 0.00 0.00 0.00 0.00 0.00 0.00 0.00 0.00 0.00 0.00 0.00 0.00 0.01 0.01 0.01 0.01 0.01 0.00 0.00 0.00 0.00 0.00 0.00 0.00 0.00 0.00 0.00
0.00 0.00 0.00 0.00 0.00 0.00 0.00 0.00 0.00 0.00 0.00 0.00 0.00 0.00 0.00 0.00 0.00 0.00 0.00 0.00 0.00 0.00 0.00 0.00 0.00 0.00 0.00 0.00 0.00 0.00 0.00 0.00 0.00 0.00 0.00 0.00 0.01 0.01 0.00 0.00 0.00 0.00 0.00 0.00 0.00 0.00 0.00 0.00 0.00
0.00 0.00 0.00 0.00 0.00 0.00 0.00 0.00 0.00 0.00 0.00 0.00 0.00 0.00 0.00 0.00 0.00 0.00 0.00 0.00 0.00 0.00 0.00 0.00 0.00 0.00 0.00 0.00 0.00 0.00 0.00 0.00 0.00 0.00 0.00 0.00 0.00 0.00 0.00 0.00 0.00 0.00 0.00 0.00 0.00 0.00 0.00 0.00 0.00
0.00 0.00 0.00 0.00 0.00 0.00 0.00 0.00 0.00 0.00 0.00 0.00 0.00 0.00 0.00 0.00 0.00 0.00 0.00 0.00 0.00 0.00 0.00 0.00 0.00 0.00 0.00 0.00 0.00 0.00 0.00 0.00 0.00 0.00 0.00 0.00 0.00 0.00 0.00 0.00 0.00 0.00 0.00 0.00 0.00 0.00 0.00 0.00 0.00
0.00 0.00 0.00 0.00 0.00 0.00 0.00 0.00 0.00 0.00 0.00 0.00 0.00 0.00 0.00 0.00 0.00 0.00 0.00 0.00 0.00 0.00 0.00 0.00 0.00 0.00 0.00 0.00 0.00 0.00 0.00 0.00 0.00 0.00 0.00 0.00 0.00 0.00 0.00 0.00 0.00 0.00 0.00 0.00 0.00 0.00 0.00 0.00 0.00
0.00 0.00 0.00 0.00 0.00 0.00 0.00 0.00 0.00 0.00 0.00 0.00 0.00 0.00 0.00 0.00 0.00 0.00 0.00 0.00 0.00 0.00 0.00 0.00 0.00 0.00 0.00 0.00 0.00 0.00 0.00 0.01 0.01 0.02 0.01 0.01 0.00 0.00 0.00 0.00 0.00 0.00 0.00 0.00 0.00 0.00 0.00 0.00 0.00
0.00 0.00 0.00 0.00 0.00 0.00 0.00 0.00 0.00 0.00 0.00 0.00 0.00 0.00 0.00 0.00 0.00 0.00 0.00 0.00 0.01 0.00 0.00 0.00 0.00 0.00 0.00 0.00 0.00 0.00 0.01 0.02 0.02 0.02 0.01 0.01 0.00 0.00 0.00 0.00 0.00 0.00 0.00 0.00 0.00 0.00 0.00 0.00 0.00
0.00 0.00 0.00 0.00 0.00 0.00 0.00 0.00 0.00 0.00 0.00 0.00 0.00 0.00 0.00 0.00 0.00 0.00 0.00 0.01 0.02 0.02 0.02 0.02 0.00 0.00 0.00 0.00 0.01 0.01 0.01 0.01 0.01 0.01 0.01 0.00 0.00 0.00 0.00 0.00 0.00 0.00 0.00 0.00 0.00 0.00 0.00 0.00 0.00
0.00 0.00 0.00 0.00 0.00 0.00 0.00 0.00 0.00 0.00 0.00 0.00 0.00 0.00 0.00 0.00 0.01 0.01 0.02 0.03 0.06 0.07 0.06 0.06 0.03 0.02 0.01 0.02 0.02 0.02 0.01 0.01 0.01 0.00 0.00 0.00 0.00 0.00 0.00 0.00 0.00 0.00 0.00 0.00 0.00 0.00 0.00 0.00 0.00
0.00 0.00 0.00 0.00 0.00 0.00 0.00 0.00 0.00 0.00 0.00 0.00 0.00 0.00 0.00 0.00 0.01 0.02 0.05 0.08 0.11 0.15 0.15 0.11 0.08 0.06 0.04 0.04 0.04 0.02 0.01 0.01 0.00 0.00 0.00 0.00 0.00 0.00 0.00 0.00 0.00 0.00 0.00 0.00 0.00 0.00 0.00 0.00 0.00
0.00 0.00 0.00 0.00 0.00 0.00 0.00 0.00 0.00 0.00 0.00 0.00 0.00 0.00 0.00 0.00 0.01 0.04 0.07 0.10 0.16 0.19 0.20 0.15 0.12 0.10 0.07 0.06 0.05 0.04 0.02 0.01 0.00 0.00 0.00 0.00 0.00 0.00 0.00 0.00 0.00 0.00 0.00 0.00 0.00 0.00 0.00 0.00 0.00
0.00 0.00 0.00 0.00 0.00 0.00 0.00 0.00 0.00 0.00 0.00 0.00 0.00 0.00 0.00 0.00 0.01 0.03 0.06 0.10 0.16 0.22 0.21 0.15 0.11 0.11 0.11 0.10 0.06 0.05 0.02 0.01 0.00 0.00 0.00 0.00 0.00 0.00 0.00 0.00 0.00 0.00 0.00 0.00 0.00 0.00 0.00 0.00 0.00
0.00 0.00 0.00 0.00 0.00 0.00 0.00 0.00 0.00 0.00 0.00 0.00 0.00 0.00 0.00 0.00 0.01 0.02 0.05 0.09 0.16 0.19 0.20 0.18 0.14 0.14 0.15 0.12 0.08 0.04 0.02 0.01 0.00 0.00 0.00 0.00 0.00 0.00 0.00 0.00 0.00 0.00 0.00 0.00 0.00 0.00 0.00 0.00 0.00
0.00 0.00 0.00 0.00 0.00 0.00 0.00 0.00 0.00 0.00 0.00 0.00 0.00 0.00 0.00 0.00 0.01 0.01 0.03 0.06 0.10 0.16 0.19 0.18 0.16 0.14 0.13 0.09 0.05 0.03 0.01 0.01 0.00 0.00 0.00 0.00 0.00 0.00 0.00 0.00 0.00 0.00 0.00 0.00 0.00 0.00 0.00 0.00 0.00
0.00 0.00 0.00 0.00 0.00 0.00 0.00 0.00 0.00 0.00 0.00 0.00 0.00 0.00 0.00 0.00 0.00 0.01 0.02 0.05 0.08 0.12 0.14 0.13 0.11 0.10 0.08 0.05 0.02 0.01 0.01 0.00 0.00 0.00 0.00 0.00 0.00 0.00 0.00 0.00 0.00 0.00 0.00 0.00 0.00 0.00 0.00 0.00 0.00
0.00 0.00 0.00 0.00 0.00 0.00 0.00 0.00 0.00 0.00 0.00 0.00 0.00 0.00 0.00 0.00 0.01 0.01 0.03 0.05 0.07 0.07 0.08 0.08 0.07 0.05 0.04 0.02 0.01 0.00 0.00 0.00 0.00 0.00 0.00 0.00 0.00 0.00 0.00 0.00 0.00 0.00 0.00 0.00 0.00 0.00 0.00 0.00 0.00
0.00 0.00 0.00 0.00 0.00 0.00 0.00 0.00 0.00 0.00 0.00 0.00 0.00 0.00 0.00 0.01 0.01 0.01 0.03 0.05 0.05 0.06 0.06 0.05 0.04 0.03 0.02 0.01 0.00 0.00 0.00 0.00 0.00 0.00 0.00 0.00 0.00 0.00 0.00 0.00 0.00 0.00 0.00 0.00 0.00 0.00 0.00 0.00 0.00
0.00 0.00 0.00 0.00 0.00 0.00 0.00 0.00 0.00 0.00 0.00 0.00 0.00 0.00 0.00 0.01 0.01 0.01 0.02 0.03 0.03 0.04 0.03 0.03 0.02 0.01 0.00 0.00 0.00 0.00 0.00 0.00 0.00 0.00 0.00 0.00 0.00 0.00 0.00 0.00 0.00 0.00 0.00 0.00 0.00 0.00 0.00 0.00 0.00
0.00 0.00 0.00 0.00 0.00 0.00 0.00 0.00 0.00 0.00 0.00 0.00 0.00 0.00 0.00 0.00 0.00 0.01 0.01 0.01 0.01 0.02 0.02 0.01 0.01 0.00 0.00 0.00 0.00 0.00 0.00 0.00 0.00 0.00 0.00 0.00 0.00 0.00 0.00 0.00 0.00 0.00 0.00 0.00 0.00 0.00 0.00 0.00 0.01
0.00 0.00 0.00 0.00 0.00 0.00 0.00 0.00 0.00 0.00 0.00 0.00 0.00 0.00 0.00 0.00 0.00 0.01 0.01 0.01 0.02 0.02 0.01 0.01 0.01 0.01 0.00 0.00 0.00 0.00 0.00 0.00 0.00 0.00 0.00 0.00 0.00 0.00 0.00 0.00 0.00 0.00 0.00 0.00 0.00 0.01 0.01 0.01 0.01
MSLP
1012.78 1013.14 1013.48 1013.69 1013.72 1013.53 1013.17 1012.71 1012.24 1011.89 1011.71 1011.74 1011.95 1012.26 1012.58 1012.82 1012.93 1012.89 1012.75 1012.59 1012.49 1012.55 1012.79 1013.22 1013.77 1014.35 1014.87 1015.26 1015.48 1015.54 1015.52 1015.47 1015.49 1015.62 1015.87 1016.20 1016.56 1016.89 1017.13 1017.26 1017.28 1017.24 1017.20 1017.20 1017.29 1017.46 1017.68 1017.89 1018.04
1012.81 1013.18 1013.49 1013.65 1013.61 1013.37 1012.96 1012.45 1011.96 1011.59 1011.40 1011.41 1011.59 1011.87 1012.17 1012.40 1012.51 1012.49 1012.40 1012.30 1012.28 1012.42 1012.74 1013.24 1013.86 1014.50 1015.07 1015.49 1015.75 1015.85 1015.85 1015.82 1015.83 1015.94 1016.14 1016.42 1016.72 1016.98 1017.17 1017.25 1017.25 1017.22 1017.21 1017.26 1017.40 1017.61 1017.86 1018.08 1018.22
1012.87 1013.21 1013.46 1013.56 1013.44 1013.14 1012.68 1012.16 1011.66 1011.29 1011.11 1011.12 1011.30 1011.57 1011.85 1012.06 1012.17 1012.16 1012.10 1012.05 1012.09 1012.29 1012.68 1013.24 1013.90 1014.58 1015.20 1015.67 1015.97 1016.12 1016.16 1016.16 1016.18 1016.28 1016.45 1016.67 1016.90 1017.09 1017.22 1017.26 1017.26 1017.24 1017.27 1017.37 1017.56 1017.81 1018.07 1018.28 1018.39
1012.93 1013.23 1013.41 1013.42 1013.24 1012.87 1012.38 1011.86 1011.38 1011.05 1010.90 1010.94 1011.12 1011.39 1011.66 1011.86 1011.96 1011.96 1011.92 1011.90 1011.98 1012.22 1012.64 1013.23 1013.92 1014.62 1015.26 1015.77 1016.12 1016.32 1016.41 1016.45 1016.51 1016.60 1016.75 1016.92 1017.10 1017.24 1017.32 1017.34 1017.34 1017.35 1017.41 1017.56 1017.78 1018.05 1018.31 1018.50 1018.56
1013.00 1013.24 1013.34 1013.27 1013.00 1012.59 1012.09 1011.57 1011.14 1010.86 1010.76 1010.84 1011.05 1011.33 1011.60 1011.79 1011.89 1011.90 1011.88 1011.88 1011.99 1012.24 1012.67 1013.26 1013.94 1014.64 1015.27 1015.80 1016.18 1016.43 1016.57 1016.67 1016.76 1016.87 1017.01 1017.16 1017.31 1017.41 1017.47 1017.49 1017.50 1017.53 1017.63 1017.80 1018.04 1018.30 1018.54 1018.68 1018.68
1013.05 1013.23 1013.24 1013.08 1012.75 1012.29 1011.79 1011.30 1010.92 1010.70 1010.67 1010.80 1011.04 1011.34 1011.62 1011.82 1011.93 1011.96 1011.96 1011.99 1012.11 1012.37 1012.78 1013.33 1013.98 1014.64 1015.25 1015.76 1016.15 1016.43 1016.62 1016.76 1016.89 1017.03 1017.18 1017.34 1017.47 1017.57 1017.62 1017.65 1017.68 1017.73 1017.85 1018.04 1018.27 1018.51 1018.69 1018.78 1018.72
1013.07 1013.16 1013.09 1012.84 1012.45 1011.96 1011.46 1011.01 1010.68 1010.53 1010.55 1010.73 1011.01 1011.34 1011.64 1011.87 1012.01 1012.08 1012.11 1012.17 1012.31 1012.57 1012.96 1013.47 1014.04 1014.64 1015.19 1015.67 1016.05 1016.33 1016.55 1016.72 1016.89 1017.06 1017.24 1017.40 1017.54 1017.65 1017.72 1017.76 1017.80 1017.88 1018.01 1018.18 1018.39 1018.58 1018.71 1018.73 1018.62
1013.03 1013.04 1012.87 1012.55 1012.10 1011.59 1011.09 1010.67 1010.39 1010.29 1010.36 1010.58 1010.90 1011.25 1011.58 1011.84 1012.04 1012.16 1012.26 1012.37 1012.54 1012.81 1013.17 1013.63 1014.14 1014.65 1015.13 1015.54 1015.88 1016.15 1016.36 1016.56 1016.75 1016.94 1017.14 1017.33 1017.48 1017.61 1017.69 1017.76 1017.82 1017.91 1018.03 1018.19 1018.35 1018.50 1018.57 1018.54 1018.39
1012.93 1012.85 1012.59 1012.18 1011.68 1011.15 1010.66 1010.27 1010.03 1009.96 1010.07 1010.31 1010.64 1011.01 1011.37 1011.69 1011.94 1012.15 1012.33 1012.51 1012.74 1013.03 1013.39 1013.80 1014.24 1014.67 1015.06 1015.40 1015.68 1015.91 1016.11 1016.30 1016.50 1016.71 1016.92 1017.12 1017.29 1017.43 1017.54 1017.62 1017.69 1017.79 1017.90 1018.03 1018.16 1018.26 1018.29 1018.22 1018.06
1012.76 1012.59 1012.24 1011.77 1011.23 1010.69 1010.21 1009.84 1009.62 1009.57 1009.68 1009.92 1010.25 1010.63 1011.01 1011.38 1011.70 1012.00 1012.28 1012.56 1012.86 1013.20 1013.57 1013.96 1014.34 1014.70 1015.01 1015.27 1015.48 1015.66 1015.83 1016.01 1016.20 1016.41 1016.62 1016.83 1017.01 1017.16 1017.28 1017.37 1017.46 1017.55 1017.65 1017.76 1017.86 1017.93 1017.93 1017.85 1017.69
1012.56 1012.29 1011.87 1011.35 1010.78 1010.24 1009.77 1009.42 1009.21 1009.16 1009.25 1009.47 1009.78 1010.14 1010.54 1010.94 1011.33 1011.72 1012.10 1012.49 1012.88 1013.28 1013.68 1014.06 1014.41 1014.72 1014.97 1015.17 1015.33 1015.46 1015.60 1015.76 1015.93 1016.13 1016.34 1016.55 1016.73 1016.89 1017.01 1017.10 1017.19 1017.28 1017.37 1017.47 1017.55 1017.60 1017.60 1017.52 1017.38
1012.33 1011.99 1011.51 1010.96 1010.40 1009.87 1009.42 1009.09 1008.88 1008.82 1008.88 1009.04 1009.31 1009.64 1010.02 1010.45 1010.89 1011.36 1011.84 1012.32 1012.80 1013.27 1013.71 1014.11 1014.45 1014.73 1014.95 1015.11 1015.24 1015.36 1015.48 1015.62 1015.78 1015.98 1016.17 1016.37 1016.55 1016.69 1016.81 1016.91 1016.99 1017.08 1017.16 1017.25 1017.33 1017.38 1017.38 1017.32 1017.21
1012.12 1011.73 1011.22 1010.67 1010.13 1009.64 1009.23 1008.92 1008.71 1008.61 1008.62 1008.72 1008.92 1009.20 1009.55 1009.98 1010.46 1010.98 1011.54 1012.10 1012.66 1013.19 1013.67 1014.10 1014.45 1014.74 1014.96 1015.12 1015.25 1015.38 1015.50 1015.65 1015.82 1016.00 1016.20 1016.38 1016.55 1016.68 1016.79 1016.88 1016.95 1017.03 1017.11 1017.20 1017.27 1017.33 1017.34 1017.30 1017.22
1011.96 1011.54 1011.04 1010.53 1010.04 1009.61 1009.24 1008.96 1008.74 1008.60 1008.55 1008.57 1008.68 1008.89 1009.20 1009.61 1010.10 1010.65 1011.25 1011.87 1012.48 1013.05 1013.58 1014.04 1014.42 1014.73 1014.99 1015.19 1015.37 1015.53 1015.69 1015.87 1016.06 1016.26 1016.45 1016.63 1016.78 1016.90 1016.99 1017.06 1017.13 1017.19 1017.26 1017.34 1017.42 1017.47 1017.49 1017.47 1017.39
1011.87 1011.46 1011.01 1010.56 1010.15 1009.78 1009.47 1009.20 1008.97 1008.78 1008.64 1008.58 1008.61 1008.74 1008.99 1009.37 1009.85 1010.42 1011.04 1011.68 1012.32 1012.92 1013.46 1013.95 1014.37 1014.73 1015.04 1015.31 1015.56 1015.80 1016.03 1016.26 1016.49 1016.72 1016.92 1017.09 1017.23 1017.33 1017.41 1017.46 1017.50 1017.55 1017.60 1017.67 1017.73 1017.78 1017.79 1017.76 1017.68
1011.85 1011.49 1011.11 1010.75 1010.42 1010.13 1009.86 1009.59 1009.33 1009.08 1008.86 1008.71 1008.64 1008.71 1008.91 1009.25 1009.72 1010.29 1010.92 1011.56 1012.20 1012.81 1013.36 1013.86 1014.31 1014.72 1015.10 1015.46 1015.80 1016.13 1016.45 1016.76 1017.04 1017.30 1017.52 1017.69 1017.82 1017.91 1017.96 1017.99 1018.01 1018.04 1018.07 1018.11 1018.15 1018.17 1018.16 1018.11 1018.01
1011.89 1011.60 1011.32 1011.06 1010.83 1010.60 1010.35 1010.07 1009.75 1009.42 1009.10 1008.86 1008.72 1008.72 1008.89 1009.22 1009.69 1010.27 1010.89 1011.54 1012.16 1012.75 1013.29 1013.79 1014.26 1014.72 1015.16 1015.61 1016.05 1016.48 1016.90 1017.28 1017.63 1017.92 1018.16 1018.33 1018.46 1018.53 1018.56 1018.58 1018.58 1018.58 1018.58 1018.59 1018.60 1018.59 1018.54 1018.45 1018.31
1011.96 1011.77 1011.59 1011.44 1011.29 1011.10 1010.85 1010.52 1010.12 1009.69 1009.28 1008.94 1008.74 1008.71 1008.88 1009.22 1009.72 1010.31 1010.95 1011.59 1012.20 1012.76 1013.28 1013.77 1014.25 1014.73 1015.23 1015.75 1016.28 1016.80 1017.30 1017.76 1018.15 1018.48 1018.73 1018.91 1019.03 1019.09 1019.12 1019.12 1019.11 1019.09 1019.07 1019.05 1019.02 1018.96 1018.88 1018.75 1018.56
1012.01 1011.94 1011.88 1011.83 1011.74 1011.57 1011.28 1010.88 1010.37 1009.82 1009.29 1008.88 1008.63 1008.60 1008.80 1009.20 1009.76 1010.40 1011.08 1011.74 1012.33 1012.87 1013.36 1013.81 1014.28 1014.77 1015.30 1015.88 1016.47 1017.06 1017.63 1018.13 1018.56 1018.91 1019.17 1019.35 1019.47 1019.53 1019.56 1019.56 1019.55 1019.52 1019.49 1019.45 1019.38 1019.29 1019.17 1018.99 1018.77
1012.01 1012.06 1012.13 1012.17 1012.12 1011.94 1011.59 1011.07 1010.44 1009.76 1009.13 1008.64 1008.38 1008.38 1008.64 1009.13 1009.78 1010.52 1011.26 1011.95 1012.56 1013.07 1013.52 1013.95 1014.38 1014.86 1015.40 1016.00 1016.63 1017.26 1017.86 1018.39 1018.84 1019.19 1019.45 1019.63 1019.74 1019.82 1019.86 1019.88 1019.88 1019.87 1019.84 1019.79 1019.71 1019.59 1019.43 1019.22 1018.97
1011.92 1012.10 1012.28 1012.40 1012.39 1012.17 1011.74 1011.11 1010.34 1009.53 1008.80 1008.26 1008.00 1008.05 1008.41 1009.02 1009.80 1010.66 1011.49 1012.24 1012.86 1013.37 1013.79 1014.18 1014.58 1015.03 1015.55 1016.14 1016.78 1017.41 1018.02 1018.55 1018.98 1019.32 1019.57 1019.75 1019.87 1019.96 1020.04 1020.09 1020.13 1020.15 1020.15 1020.10 1020.01 1019.88 1019.70 1019.47 1019.20
1011.71 1012.02 1012.32 1012.51 1012.51 1012.27 1011.75 1011.00 1010.10 1009.18 1008.37 1007.80 1007.55 1007.68 1008.15 1008.90 1009.83 1010.82 1011.76 1012.58 1013.24 1013.76 1014.16 1014.51 1014.87 1015.28 1015.77 1016.34 1016.95 1017.56 1018.15 1018.65 1019.06 1019.38 1019.61 1019.78 1019.91 1020.02 1020.12 1020.23 1020.32 1020.38 1020.41 1020.39 1020.30 1020.16 1019.97 1019.73 1019.46
1011.38 1011.82 1012.22 1012.48 1012.50 1012.23 1011.64 1010.80 1009.80 1008.78 1007.91 1007.33 1007.12 1007.32 1007.92 1008.81 1009.89 1011.01 1012.07 1012.97 1013.68 1014.21 1014.60 1014.92 1015.24 1015.62 1016.07 1016.59 1017.17 1017.75 1018.29 1018.76 1019.13 1019.40 1019.61 1019.76 1019.89 1020.03 1020.17 1020.32 1020.46 1020.57 1020.63 1020.64 1020.56 1020.42 1020.23 1019.98 1019.71
1010.96 1011.50 1011.99 1012.32 1012.37 1012.08 1011.45 1010.54 1009.47 1008.40 1007.50 1006.92 1006.76 1007.05 1007.75 1008.77 1009.98 1011.23 1012.39 1013.36 1014.12 1014.68 1015.07 1015.38 1015.67 1016.01 1016.43 1016.91 1017.44 1017.98 1018.47 1018.89 1019.21 1019.44 1019.61 1019.74 1019.87 1020.01 1020.18 1020.36 1020.55 1020.69 1020.79 1020.81 1020.74 1020.60 1020.39 1020.14 1019.87
1010.46 1011.09 1011.65 1012.03 1012.11 1011.82 1011.18 1010.25 1009.15 1008.06 1007.16 1006.61 1006.50 1006.86 1007.66 1008.78 1010.10 1011.44 1012.68 1013.73 1014.53 1015.12 1015.52 1015.83 1016.11 1016.43 1016.81 1017.27 1017.76 1018.25 1018.69 1019.05 1019.32 1019.51 1019.63 1019.73 1019.84 1019.98 1020.15 1020.35 1020.55 1020.72 1020.82 1020.84 1020.78 1020.62 1020.40 1020.14 1019.87
1009.94 1010.61 1011.22 1011.63 1011.74 1011.47 1010.84 1009.92 1008.83 1007.77 1006.90 1006.39 1006.34 1006.76 1007.63 1008.83 1010.21 1011.62 1012.92 1014.01 1014.86 1015.47 1015.90 1016.22 1016.50 1016.81 1017.19 1017.61 1018.07 1018.52 1018.92 1019.23 1019.44 1019.58 1019.65 1019.71 1019.79 1019.90 1020.05 1020.24 1020.43 1020.59 1020.69 1020.70 1020.61 1020.44 1020.20 1019.93 1019.65
1009.46 1010.12 1010.73 1011.15 1011.27 1011.02 1010.42 1009.53 1008.49 1007.48 1006.68 1006.23 1006.23 1006.71 1007.63 1008.86 1010.29 1011.73 1013.06 1014.19 1015.07 1015.71 1016.17 1016.51 1016.80 1017.12 1017.49 1017.90 1018.33 1018.74 1019.10 1019.36 1019.53 1019.61 1019.64 1019.65 1019.68 1019.75 1019.86 1020.02 1020.18 1020.31 1020.38 1020.36 1020.24 1020.04 1019.78 1019.49 1019.21
1009.05 1009.66 1010.22 1010.61 1010.72 1010.48 1009.91 1009.08 1008.11 1007.18 1006.45 1006.08 1006.14 1006.67 1007.62 1008.87 1010.30 1011.76 1013.10 1014.24 1015.14 1015.81 1016.29 1016.66 1016.98 1017.31 1017.67 1018.08 1018.49 1018.88 1019.20 1019.42 1019.54 1019.58 1019.56 1019.52 1019.49 1019.51 1019.58 1019.69 1019.80 1019.89 1019.92 1019.86 1019.72 1019.49 1019.21 1018.91 1018.61
1008.79 1009.29 1009.76 1010.07 1010.12 1009.88 1009.33 1008.55 1007.67 1006.83 1006.21 1005.92 1006.05 1006.63 1007.59 1008.85 1010.28 1011.72 1013.05 1014.20 1015.11 1015.79 1016.30 1016.69 1017.03 1017.37 1017.73 1018.12 1018.52 1018.88 1019.17 1019.37 1019.45 1019.45 1019.40 1019.31 1019.25 1019.22 1019.24 1019.29 1019.36 1019.40 1019.39 1019.30 1019.13 1018.89 1018.59 1018.28 1017.98
1008.70 1009.06 1009.38 1009.58 1009.55 1009.26 1008.72 1008.00 1007.20 1006.48 1005.96 1005.77 1005.99 1006.61 1007.60 1008.86 1010.26 1011.68 1012.99 1014.12 1015.03 1015.72 1016.24 1016.64 1016.98 1017.32 1017.68 1018.06 1018.43 1018.77 1019.04 1019.21 1019.27 1019.25 1019.17 1019.07 1018.97 1018.91 1018.89 1018.91 1018.93 1018.94 1018.91 1018.80 1018.61 1018.36 1018.05 1017.73 1017.43
Thickness
5782 5788 5793 5792 5786 5787 5796 5802 5808 5807 5808 5813 5812 5808 5799 5794 5787 5777 5791 5798 5795 5791 5784 5773 5769 5765 5763 5761 5759 5758 5756 5755 5754 5752 5750 5748 5747 5746 5744 5743 5742 5741 5741 5740 5740 5739 5738 5738 5738
5787 5789 5788 5787 5781 5789 5795 5805 5805 5810 5811 5814 5810 5803 5797 5794 5794 5791 5792 5792 5790 5786 5781 5775 5766 5763 5759 5757 5755 5754 5752 5751 5749 5748 5746 5744 5742 5741 5739 5738 5736 5736 5736 5735 5735 5734 5733 5733 5733
5788 5789 5785 5784 5784 5796 5799 5806 5810 5812 5813 5810 5806 5804 5797 5790 5792 5792 5793 5791 5788 5783 5778 5771 5764 5760 5757 5754 5751 5750 5748 5746 5745 5743 5741 5739 5738 5736 5735 5733 5732 5731 5731 5730 5730 5729 5728 5728 5728
5787 5784 5784 5780 5787 5800 5805 5812 5814 5807 5808 5810 5806 5797 5799 5797 5796 5796 5793 5790 5785 5781 5777 5769 5762 5758 5754 5751 5748 5746 5744 5742 5740 5739 5737 5736 5734 5733 5731 5730 5729 5728 5727 5727 5726 5724 5723 5723 5722
5788 5784 5777 5782 5794 5805 5810 5815 5816 5808 5803 5805 5802 5794 5791 5796 5800 5797 5792 5788 5784 5780 5776 5769 5760 5756 5752 5748 5745 5743 5741 5739 5737 5736 5734 5733 5731 5730 5729 5727 5726 5726 5725 5723 5722 5720 5719 5718 5718
5781 5783 5777 5787 5796 5805 5812 5817 5816 5813 5808 5807 5802 5796 5793 5797 5795 5794 5793 5789 5786 5780 5776 5767 5757 5754 5750 5747 5744 5741 5739 5737 5735 5733 5732 5730 5729 5727 5726 5725 5724 5723 5722 5721 5719 5717 5716 5714 5713
5781 5781 5784 5792 5794 5800 5810 5818 5816 5814 5808 5809 5811 5795 5794 5794 5796 5796 5793 5790 5786 5781 5775 5768 5761 5753 5748 5745 5742 5740 5737 5734 5732 5730 5729 5727 5726 5724 5723 5722 5720 5719 5718 5717 5715 5713 5712 5710 5709
5791 5786 5786 5791 5792 5799 5814 5818 5821 5819 5815 5822 5815 5797 5792 5796 5798 5797 5792 5788 5785 5779 5774 5766 5762 5757 5751 5746 5741 5737 5735 5732 5730 5728 5726 5725 5723 5722 5720 5718 5716 5715 5713 5712 5710 5709 5708 5706 5705
5788 5779 5786 5792 5793 5801 5815 5815 5820 5827 5818 5813 5815 5810 5809 5805 5798 5792 5787 5783 5780 5775 5769 5763 5759 5756 5753 5748 5740 5736 5732 5730 5728 5726 5723 5722 5725 5723 5719 5715 5712 5710 5709 5707 5706 5704 5703 5702 5702
5782 5780 5793 5798 5802 5806 5813 5817 5816 5812 5806 5804 5807 5809 5808 5801 5794 5788 5784 5780 5776 5769 5765 5763 5759 5755 5751 5747 5740 5738 5735 5731 5729 5727 5724 5723 5720 5718 5716 5710 5708 5706 5704 5703 5702 5700 5700 5700 5704
5783 5785 5795 5800 5807 5808 5811 5816 5820 5811 5803 5808 5807 5806 5803 5796 5792 5789 5786 5781 5778 5770 5764 5763 5758 5754 5752 5746 5741 5738 5735 5729 5727 5724 5720 5718 5717 5715 5714 5712 5707 5705 5702 5704 5700 5700 5701 5700 5698
5781 5788 5794 5800 5807 5806 5809 5817 5816 5816 5819 5829 5825 5817 5804 5796 5792 5790 5787 5784 5779 5772 5765 5761 5756 5751 5747 5745 5739 5735 5732 5727 5726 5720 5717 5716 5715 5712 5711 5708 5707 5705 5703 5699 5698 5697 5695 5692 5691
5776 5785 5793 5800 5806 5808 5808 5812 5815 5819 5830 5829 5826 5816 5806 5799 5796 5793 5792 5786 5779 5771 5765 5759 5754 5748 5742 5738 5735 5733 5729 5726 5722 5717 5714 5711 5712 5710 5708 5704 5700 5700 5699 5697 5693 5693 5690 5687 5686
5781 5785 5788 5795 5801 5804 5804 5810 5811 5815 5824 5819 5816 5811 5807 5802 5797 5792 5787 5781 5775 5770 5764 5759 5753 5746 5740 5735 5731 5729 5727 5720 5720 5715 5711 5707 5707 5704 5702 5699 5695 5694 5691 5689 5686 5684 5680 5680 5678
5776 5773 5782 5791 5797 5801 5803 5795 5803 5813 5815 5811 5810 5809 5807 5803 5798 5791 5785 5778 5773 5767 5762 5756 5751 5745 5739 5735 5731 5727 5724 5719 5715 5710 5705 5702 5700 5696 5694 5693 5689 5686 5682 5678 5677 5675 5673 5670 5668
5769 5766 5767 5786 5789 5794 5789 5786 5799 5806 5806 5804 5806 5806 5803 5799 5797 5791 5786 5777 5771 5765 5758 5752 5749 5742 5736 5731 5726 5723 5719 5713 5709 5704 5699 5694 5691 5688 5685 5684 5680 5675 5674 5672 5668 5666 5664 5661 5657
5757 5758 5766 5779 5782 5785 5784 5789 5787 5798 5799 5798 5801 5803 5799 5794 5792 5788 5784 5774 5766 5760 5753 5748 5744 5737 5732 5725 5719 5715 5708 5704 5700 5696 5692 5686 5683 5679 5677 5673 5667 5666 5664 5661 5658 5654 5650 5647 5643
5755 5759 5764 5771 5773 5773 5773 5778 5780 5788 5790 5794 5798 5799 5795 5791 5786 5783 5777 5770 5762 5755 5749 5743 5736 5730 5724 5718 5712 5707 5701 5696 5691 5686 5681 5677 5673 5669 5667 5662 5657 5656 5653 5648 5643 5639 5635 5631 5628
5750 5748 5752 5763 5769 5760 5762 5766 5774 5779 5781 5786 5791 5794 5792 5788 5783 5774 5765 5759 5754 5748 5743 5737 5730 5723 5717 5712 5706 5699 5693 5688 5682 5676 5670 5666 5663 5659 5655 5653 5646 5643 5640 5634 5632 5627 5625 5621 5617
5737 5735 5742 5754 5759 5751 5754 5757 5770 5772 5774 5780 5784 5785 5786 5783 5766 5757 5753 5750 5747 5742 5736 5730 5722 5717 5712 5705 5699 5691 5684 5677 5671 5665 5659 5655 5651 5647 5644 5639 5637 5631 5626 5622 5617 5613 5610 5609 5604
5729 5731 5739 5742 5752 5750 5743 5745 5761 5767 5768 5772 5777 5782 5783 5777 5760 5749 5744 5742 5739 5734 5729 5723 5714 5709 5703 5696 5688 5679 5672 5667 5660 5654 5648 5643 5639 5635 5630 5627 5623 5618 5615 5612 5603 5597 5594 5591 5587
5724 5738 5735 5733 5731 5737 5739 5727 5759 5764 5759 5764 5770 5774 5775 5771 5760 5747 5740 5735 5731 5726 5720 5713 5705 5699 5692 5686 5680 5673 5667 5660 5652 5645 5639 5632 5627 5624 5620 5615 5610 5605 5601 5594 5589 5585 5577 5572 5571
5727 5738 5732 5729 5726 5725 5730 5718 5742 5759 5749 5763 5771 5770 5769 5766 5754 5743 5735 5728 5722 5716 5709 5701 5694 5687 5681 5674 5668 5662 5658 5650 5643 5635 5627 5623 5617 5612 5607 5601 5596 5590 5586 5578 5571 5566 5560 5558 5553
5731 5725 5721 5721 5720 5707 5723 5720 5730 5755 5750 5763 5773 5767 5761 5756 5744 5732 5725 5717 5710 5704 5696 5689 5682 5674 5668 5663 5657 5652 5646 5640 5633 5626 5620 5614 5609 5601 5594 5587 5581 5575 5570 5563 5556 5549 5546 5540 5533
5720 5707 5697 5698 5701 5710 5734 5722 5731 5755 5761 5764 5764 5759 5751 5742 5729 5718 5710 5704 5697 5690 5684 5677 5670 5663 5656 5650 5645 5640 5635 5629 5623 5617 5609 5603 5598 5591 5580 5574 5566 5561 5554 5547 5541 5536 5530 5525 5519
5714 5709 5694 5691 5703 5722 5730 5714 5735 5753 5755 5755 5756 5753 5741 5730 5719 5709 5700 5693 5686 5680 5672 5665 5659 5652 5646 5639 5633 5628 5624 5621 5613 5604 5598 5590 5583 5577 5566 5559 5552 5546 5540 5535 5529 5524 5520 5513 5507
5713 5713 5720 5705 5702 5697 5712 5728 5736 5743 5743 5747 5747 5743 5731 5719 5708 5699 5690 5683 5675 5668 5661 5655 5648 5641 5636 5629 5623 5617 5612 5606 5598 5590 5583 5578 5568 5562 5554 5547 5540 5534 5528 5522 5516 5513 5506 5502 5497
5724 5723 5711 5696 5681 5681 5700 5713 5727 5736 5742 5746 5741 5734 5722 5709 5698 5690 5681 5673 5665 5658 5652 5645 5639 5632 5625 5619 5613 5606 5599 5592 5585 5579 5571 5563 5556 5548 5542 5536 5530 5524 5517 5511 5505 5501 5497 5492 5487
5709 5708 5705 5705 5706 5692 5690 5710 5740 5736 5736 5738 5739 5732 5717 5700 5690 5682 5673 5664 5655 5648 5642 5635 5629 5622 5615 5609 5601 5594 5586 5579 5574 5567 5560 5552 5544 5537 5531 5525 5519 5514 5508 5502 5496 5491 5486 5482 5479
5715 5712 5708 5693 5694 5700 5694 5708 5735 5729 5730 5731 5732 5725 5709 5694 5685 5676 5666 5656 5646 5639 5633 5627 5620 5612 5605 5598 5589 5581 5574 5568 5561 5556 5548 5540 5533 5527 5521 5515 5510 5504 5499 5493 5487 5482 5478 5473 5469